sat.trackr.live / text

‹ back to catalog

STARLINK-38009

NORAD 69678 · 2026-145B

PAYLOAD ACTIVE UNKNOWN

§ Identity

Operator
Country
US
Launch date
2026-06-25
Launch site
AFWTR
Launch vehicle
Mass (kg)
RCS (m²)

Purposes: comms

External: N2YO · Heavens-Above · Gunter

§ Orbital elements

Epoch: 2026-09-20T00:09:05.954688Z

Period
93.91 min
Inclination
97.2849°
Eccentricity
0.0001956
Mean motion
15.33449030 rev/d
Perigee alt
464.2 km
Apogee alt
466.9 km
Semi-major
6,843.7 km
B*
4.4561e-4
RAAN
109.6172°
Arg perigee
73.6978°
Mean anomaly
286.4480°
Rev number
1,346

§ Raw data

STARLINK-380091 69678U 26145B   26263.00631892  .00014341  00000+0  44561-3 0  99972 69678  97.2849 109.6172 0001956  73.6978 286.4480 15.33449030 13462

JSON: /api/v1/satellites/69678 · /tle

For live sub-satellite position, see the globe view (requires WebGL).

§ Visibility from observer

Set your observer location to see the next 7 days of passes ≥ 10°. The values pass through the URL so the page stays shareable.

No JS? Fill the form by hand. The geolocation button needs JavaScript.